Regional Weather Roundup
Issued by NWS

Home | Current Version | Previous Version | Graphics & Text | Print | Product List | Glossary On
Versions: 1 2 3 4 5 6 7 8 9 10 11 12 13 14 15 16 17 18 19 20 21 22 23 24 25 26 27
000
ASUS45 KCYS 241510
RWRWY

WYOMING REGIONAL WEATHER ROUNDUP
NATIONAL WEATHER SERVICE CHEYENNE WY
900 AM MDT SUN JUL 24 2016

NOTE:  "FAIR" INDICATES FEW OR NO CLOUDS BELOW 12,000 FEET
WITH NO SIGNIFICANT WEATHER AND/OR OBSTRUCTIONS TO VISIBILITY.

WYZ001-241600-
YELLOWSTONE NATIONAL PARK

CITY           SKY/WX    TMP DP  RH WIND       PRES   REMARKS
LK YELLOWSTONE   N/A     51  43  74 VRB3      30.38R
W YELLOWSTONE  NOT AVBL

$$
WYZ002>013-054>058-071-098>099-241600-
NORTHERN WYOMING

CITY           SKY/WX    TMP DP  RH WIND       PRES   REMARKS
JACKSON        SUNNY     52  28  40 CALM      30.31S
CODY           FAIR      68  43  40 CALM      30.21R
GREYBULL       FAIR      69  40  34 CALM      30.15R
WORLAND        FAIR      70  39  32 VRB3      30.16S
SHERIDAN       FAIR      75  41  29 SE14      30.13S
BUFFALO        FAIR      73  40  30 S13       30.21S
GILLETTE       FAIR      72  45  37 S13       30.17S
HULETT         CLOUDY    64  50  59 E8        30.17F
NEWCASTLE      FAIR      70  36  28 S3        30.20R

$$
WYZ014>020-022>026-101>103-241600-
CENTRAL WYOMING

CITY           SKY/WX    TMP DP  RH WIND       PRES   REMARKS
BIG PINEY      FAIR      54  30  40 CALM      30.33F
PINEDALE       FAIR      57  30  35 CALM      30.34S
DUBOIS         HAZE      55  25  30 NW7       30.33S VSB 1
LANDER         FAIR      70  39  32 SE3       30.23R
RIVERTON       FAIR      67  37  33 E7        30.24R
CASPER         FAIR      67  38  34 E8        30.23R
DOUGLAS          N/A    N/A N/A N/A MISG      30.22R

$$
WYZ021-027>030-104>119-241600-
SOUTHERN WYOMING

CITY           SKY/WX    TMP DP  RH WIND       PRES   REMARKS
EVANSTON       FAIR      64  26  23 S5        30.32R
KEMMERER         N/A     63  30  29 N7        30.34R
FORT BRIDGER   SUNNY     66  27  22 CALM      30.35R
ROCK SPRINGS   FAIR      65  33  30 E8        30.30S
DIXON          FAIR      67  42  40 SE6       30.32R
RAWLINS        FAIR      68  29  23 VRB5G17   30.30S
SARATOGA       FAIR      70  43  37 SE10      30.31S
LARAMIE        FAIR      70  39  32 S5        30.30R
CHEYENNE       FAIR      73  52  47 S7        30.23R
TORRINGTON     FAIR      79  52  38 E14       30.14R
PINE BLUFFS    FAIR      70  54  56 SE12      30.18S

$$




USA.gov is the U.S. government's official web portal to all federal, state and local government web resources and services.